Miscellaneous Local Product
Issued by NWS North Platte, NE

Home | Current Version | Previous Version | Graphics & Text | Print | Product List | Glossary On
Versions: 1 2 3 4 5 6 7 8 9 10 11 12 13 14 15 16 17 18 19 20 21 22 23 24 25 26 27 28 29 30 31 32 33 34 35 36 37 38 39 40 41 42 43 44 45 46 47 48 49 50
000
AXUS43 KLBF 230910
MISLBF


WESTERN AND NORTH CENTRAL NEBRASKA HOURLY WEATHER ROUNDUP
NATIONAL WEATHER SERVICE NORTH PLATTE NE
400 AM CDT SAT MAY 23 2015

***STATIONS NOT REPORTING VARIABLES SUCH AS SKY/WEATHER OR
PRESSURE ARE PROVIDED BY THE NEBRASKA DEPARTMENT OF
ROADS...RAWS...AND APRS NETWORKS...AND ARE NOT UNDER
NATIONAL WEATHER SERVICE QUALITY CONTROL***

...OBSERVATIONS IN AND NEAR THE EASTERN PANHANDLE OF NEBRASKA...

CITY           SKY/WX    TMP DP  RH WIND       PRES   REMARKS
PINE RIDGE     CLOUDY    47  43  86 SE8       30.07S
CHADRON        CLOUDY    48  44  86 S5        30.07R
ALLIANCE       CLOUDY    46  46 100 SE7       30.05F FOG
SIDNEY         FOG       47  47 100 SE7       30.05S VSB 1/4
WHITECLAY        N/A     45  43  93 SE6         N/A
BIG SPRINGS      N/A     52  51  97 SE5         N/A
$$

...OBSERVATIONS IN NORTH CENTRAL NEBRASKA...

CITY           SKY/WX    TMP DP  RH WIND       PRES   REMARKS
VALENTINE      LGT RAIN  49  47  93 E6        30.11S FOG
THEDFORD       FOG       50  49  98 SE5       30.09F VSB 1
AINSWORTH      RAIN      50  50 100 E7        30.11S
O`NEILL        CLOUDY    52  50  93 SE7       30.15S
ORD            CLOUDY    52  50  93 S6        30.12S
BROKEN BOW     CLOUDY    53  52  96 S12       30.11R FOG
VALENTINE NWR    N/A     47  47  99 E6          N/A
SPRINGVIEW       N/A     49  47  94 E3          N/A
ROSE             N/A     50  50  99 E12         N/A
NEWPORT          N/A     49  49  99 E8          N/A
SARGENT          N/A     52  51  98 SE3         N/A
EWING            N/A     52  50  92 CALM        N/A
$$

...OBSERVATIONS IN SOUTHWEST NEBRASKA AND FAR NORTHEAST COLORADO...

CITY           SKY/WX    TMP DP  RH WIND       PRES   REMARKS
WRAY           LGT RAIN N/A N/A N/A E17G23    30.02F
IMPERIAL       LGT RAIN  52  51  97 SE17      30.04F
OGALLALA       CLOUDY    51  51  99 SE6       30.05F
NORTH PLATTE   LGT RAIN  53  51  93 SE9       30.07F
MCCOOK         CLOUDY    54  53  97 SW5       30.11R THUNDER FOG
LEXINGTON      CLOUDY    54  53  97 SE9       30.10F FOG
PAXTON           N/A     52  51  97 SE6         N/A
GOTHENBURG       N/A     53  51  94 SE6         N/A
CALLAWAY         N/A     53  52  98 SE14        N/A
$$

...NORTH PLATTE AREA...

CITY           SKY/WX    TMP DP  RH WIND       PRES   REMARKS
AIRPORT        LGT RAIN  53  51  93 SE9       30.07F
DOWNTOWN         N/A     52  51  95 SE3         N/A
$$

...SOME WEATHER OBSERVATIONS FROM AROUND THE REGION...

CITY           SKY/WX    TMP DP  RH WIND       PRES   REMARKS
DENVER         MOCLDY    47  44  90 S3        30.05S
LARAMIE        MOCLDY    39  37  92 SE12      30.04F WCI  32
CHEYENNE       CLOUDY    43  41  93 S13       30.05S
SCOTTSBLUFF    CLOUDY    46  45  96 E6        30.05F
RAPID CITY     CLOUDY    45  43  93 SE6       30.06R
PIERRE         CLOUDY    50  44  80 SE10      30.12S
WINNER         CLOUDY    51  47  86 SE9       30.13S
SIOUX FALLS    CLOUDY    57  45  64 SE8       30.19S
OMAHA          CLOUDY    59  50  72 SE8       30.19F
GRAND ISLAND   CLOUDY    53  49  86 SE8       30.15S
KANSAS CITY    CLOUDY    60  50  69 SE8       30.20S
WICHITA        CLOUDY    56  54  93 SE7       30.14F FOG
HAYS           CLOUDY    54  46  76 SE12      30.10F
LIBERAL        CLOUDY    57  54  88 SE8       30.07R
GOODLAND       CLOUDY    53  53 100 SE13G22   30.03R FOG
$$



USA.gov is the U.S. government's official web portal to all federal, state and local government web resources and services.